Home   Weather   Pueblo   Past weeks

Flag for USA Past Weather in Pueblo, Colorado, USA — Yesterday and Last 2 Weeks

Now
52 °F

Clear.


Feels Like: 48 °F
Forecast: 27 / 52 °F
Wind: 12 mph from Northwest

Location: Pueblo Memorial Airport

Current Time: Dec 10, 2016 at 11:18:43 pm

Latest Report: Dec 10, 2016 at 9:53 pm


Visibility: 10 mi

Pressure: 29.65 "Hg (24.96 "Hg at 1430m altitude)

Humidity: 31%

Dew Point: 22 °F

Location of PuebloLocation

Past Weather in Pueblo — Graph

°F

Pueblo Temperature Yesterday

Maximum temperature yesterday: 43 °F (at 2:53 pm)
Minimum temperature yesterday: 7 °F (at 2:53 am)
Average temperature yesterday: 23 °F

High & Low Weather Summary for the Past Weeks

 TemperatureHumidityPressure
High64 °F (Dec 10, 1:53 pm)85% (Dec 3, 4:53 am)30.67 "Hg (Dec 3, 4:53 am)
Low7 °F (Dec 9, 2:53 am)9% (Nov 26, 12:53 pm)29.24 "Hg (Nov 28, 1:53 pm)
Average30 °F50%29.99 "Hg
* Reported Nov 25 9:53 pm — Dec 10 9:53 pm, Pueblo, Weather by CustomWeather, © 2016

Note: Actual official high and low records may vary slightly from our data, if they occured in-between our weather recording intervals... More about our weather records

Advertising

Pueblo Weather History for the Previous 24 Hours

Scroll right to see more
 ConditionsComfort  
Time TempWeatherWind HumidityBarometerVisibility
9:53 pm
Sat, Dec 10
52 °FClear.12 mph31%29.65 "Hg10 mi
8:53 pm51 °FClear.15 mph29%29.68 "Hg10 mi
7:53 pm57 °FClear.18 mph24%29.69 "Hg10 mi
6:53 pm54 °FClear.9 mph23%29.72 "Hg10 mi
5:53 pm56 °FClear.15 mph23%29.71 "Hg10 mi
4:53 pm52 °FClear.5 mph28%29.74 "Hg10 mi
3:53 pm57 °FSunny.No wind25%29.73 "Hg10 mi
2:53 pm64 °FSunny.13 mph19%29.71 "Hg10 mi
1:53 pm64 °FSunny.8 mph21%29.71 "Hg10 mi
12:53 pm56 °FSunny.10 mph29%29.77 "Hg10 mi
11:53 am46 °FSunny.No wind38%29.85 "Hg10 mi
10:53 am39 °FSunny.3 mph48%29.94 "Hg10 mi
9:53 am34 °FSunny.No wind54%30.01 "Hg10 mi
8:53 am27 °FSunny.3 mph69%30.02 "Hg10 mi
7:53 am19 °FSunny.3 mph77%30.08 "Hg10 mi
6:53 am16 °FClear.6 mph80%30.11 "Hg10 mi
5:53 am14 °FClear.8 mph80%30.12 "Hg10 mi
4:53 am15 °FClear.No wind80%30.12 "Hg10 mi
3:53 am16 °FClear.No wind77%30.10 "Hg10 mi
2:53 am18 °FClear.6 mph74%30.12 "Hg10 mi
1:53 am19 °FClear.6 mph74%30.15 "Hg10 mi
12:53 am19 °FClear.6 mph71%30.17 "Hg10 mi
11:53 pm
Fri, Dec 9
21 °FClear.3 mph68%30.19 "Hg10 mi
Weather by CustomWeather, © 2016

See weather overviewHow to use our weather pages